Wind_Speed
16 15 15 14 14 14 13 13 13 13 13 13 12 12 13 13 13 12 12 12 11 11 10 9 9 9 8 8 7 6 6 6 6 6 6 6 6 6 6 5 5 5 5
18 17 17 16 16 15 15 14 14 14 14 14 14 14 14 14 14 14 14 13 12 12 11 11 10 10 9 9 8 8 8 8 8 8 8 8 7 7 7 7 6 6 6
21 20 19 19 18 17 16 16 16 15 16 15 15 15 15 15 15 14 14 14 13 13 13 12 11 11 10 10 10 9 9 10 10 9 9 9 9 8 8 8 8 8 8
23 22 21 21 20 19 18 17 17 17 17 17 16 16 16 16 16 15 15 15 15 14 14 13 13 12 12 11 11 11 11 10 11 10 10 10 10 10 10 10 10 10 10
25 24 23 23 22 21 20 19 18 18 18 18 18 18 18 17 17 17 17 17 16 15 14 14 14 13 13 12 12 12 12 12 12 11 11 12 12 12 12 12 12 12 12
27 26 25 25 24 23 22 21 20 20 20 19 19 20 20 19 19 19 18 18 17 17 16 15 15 15 14 14 14 14 13 14 13 13 13 13 13 14 14 14 14 14 14
28 28 27 26 26 26 24 23 22 22 22 21 21 21 21 21 20 20 19 19 18 18 17 17 16 16 16 16 16 15 15 15 15 15 14 14 15 15 15 16 16 16 16
29 29 29 28 28 27 27 25 24 24 23 22 22 22 22 22 22 22 21 21 20 19 18 18 18 18 18 18 18 18 17 17 17 16 16 16 16 16 17 17 18 18 19
30 31 31 30 30 29 28 28 27 26 25 24 23 23 23 23 23 23 23 22 21 20 20 20 20 20 20 20 20 19 19 18 19 18 18 18 18 19 19 19 19 20 21
31 32 32 33 33 31 30 30 29 28 28 27 26 25 25 25 24 24 24 24 23 22 22 22 22 21 21 22 22 22 21 21 21 21 21 21 21 21 21 21 21 21 22
33 33 33 33 34 34 33 31 31 31 30 30 29 28 27 27 26 26 25 25 24 23 24 24 24 23 23 23 23 23 23 23 23 23 23 23 24 24 24 24 24 24 24
34 34 34 34 33 34 34 33 33 33 32 32 31 30 30 29 29 28 28 27 26 26 26 26 25 25 25 25 25 25 25 26 26 26 26 26 26 26 26 26 26 26 26
34 35 34 35 36 35 35 35 35 34 34 34 33 33 32 32 31 31 30 30 29 29 28 28 28 28 27 27 28 28 27 27 28 28 28 28 28 28 28 28 28 29 29
36 36 36 36 36 36 36 35 36 36 35 35 35 35 34 34 33 33 32 32 30 30 30 30 30 30 29 29 30 30 30 30 30 31 31 30 30 30 30 30 30 31 31
36 37 37 37 37 37 37 37 37 37 37 37 37 36 36 36 35 35 34 34 33 33 32 32 32 32 31 31 31 31 31 31 32 32 32 32 32 32 32 32 32 33 33
37 38 38 37 38 37 37 38 38 39 39 38 38 37 37 37 37 37 36 36 35 35 35 34 34 34 34 34 33 33 33 33 34 33 33 34 34 34 34 34 34 35 35
38 39 39 38 38 38 38 39 39 40 40 40 39 39 39 39 38 38 38 38 38 38 37 37 37 37 37 36 36 35 35 35 36 35 35 35 36 36 36 36 36 37 37
38 39 40 39 39 38 39 40 40 41 41 41 41 41 41 41 40 40 40 40 40 40 39 39 39 39 39 38 38 38 37 37 37 37 37 37 38 38 38 38 39 39 39
38 39 39 39 40 39 40 41 41 41 41 41 41 42 42 42 42 42 42 42 42 42 41 41 41 41 41 40 40 40 39 39 39 39 39 39 39 40 40 41 41 40 40
37 38 39 40 40 41 41 41 41 42 42 42 42 43 43 42 43 43 43 43 44 44 43 43 43 42 42 41 42 42 41 41 41 41 41 41 41 41 42 42 42 42 42
35 37 38 39 40 41 42 42 42 42 43 43 43 42 44 43 43 43 43 43 44 45 45 45 45 45 44 44 44 44 43 42 43 42 42 42 43 43 44 44 43 43 43
35 36 37 38 40 40 41 42 42 43 44 44 45 44 44 45 45 44 45 45 45 45 46 46 46 46 46 45 44 44 44 44 44 44 43 44 45 45 45 45 46 45 45
36 36 36 37 39 41 41 42 43 43 43 44 45 45 45 45 46 46 46 46 46 47 47 47 46 46 46 46 46 45 44 44 44 45 45 45 45 46 46 47 47 47 47
34 35 36 38 39 41 42 43 43 43 44 45 45 46 46 46 46 46 46 46 47 48 48 47 47 46 47 47 46 46 46 45 45 45 45 46 47 47 47 47 47 47 48
33 34 35 37 38 39 41 43 44 44 45 46 46 47 46 47 47 47 47 48 47 48 48 49 49 49 49 48 47 47 47 47 47 47 47 47 47 47 47 47 47 48 48
32 33 34 36 37 38 40 42 43 43 44 44 45 46 46 47 47 49 49 49 49 49 50 50 49 49 49 49 49 48 48 48 48 48 48 48 48 48 48 48 48 48 48
Wind_Direction
242 240 240 241 243 244 246 247 247 245 244 243 242 241 241 243 243 245 245 244 246 247 247 248 249 247 245 243 245 250 253 255 253 250 248 250 252 254 251 250 255 267 276
246 242 241 242 243 244 246 248 247 246 245 245 244 242 243 243 244 245 246 246 246 249 250 248 246 246 244 245 247 251 254 255 257 256 254 253 254 253 250 251 258 267 275
247 245 243 243 244 246 247 248 247 246 246 246 246 245 244 244 244 246 246 247 248 248 248 247 246 245 243 247 249 252 255 255 258 259 260 260 259 256 254 255 260 266 274
248 246 245 244 245 246 246 246 248 247 246 246 247 247 246 245 246 247 247 248 248 249 249 247 247 246 244 247 251 255 257 258 258 259 260 262 263 262 258 257 260 267 274
247 247 245 245 245 245 245 246 247 247 245 245 246 245 246 246 248 247 248 248 248 248 248 249 250 249 247 249 252 254 257 257 257 259 260 261 262 262 262 260 263 267 272
247 246 245 244 244 245 245 245 246 246 246 246 247 246 247 248 249 248 248 249 248 248 249 249 250 250 250 251 253 255 257 257 258 260 261 262 262 262 262 263 265 268 272
246 245 244 244 243 244 244 244 244 245 245 247 248 247 247 248 249 248 248 248 250 251 248 247 249 251 252 253 254 256 257 258 260 261 263 264 264 264 265 266 269 271 273
245 244 244 243 242 242 243 242 243 244 244 246 248 247 247 247 249 248 248 248 249 249 249 249 250 253 254 254 255 256 257 258 260 261 264 264 264 264 266 267 269 272 276
245 244 244 243 242 241 241 242 243 245 245 245 246 246 245 248 249 249 250 249 249 250 251 251 252 254 256 256 256 257 258 259 260 262 264 265 265 264 266 268 270 273 275
244 243 243 243 242 241 241 242 244 245 246 245 246 247 246 247 248 248 252 251 249 250 252 254 254 256 257 259 259 258 259 260 262 263 265 265 265 267 268 269 271 275 277
243 241 241 242 242 241 241 242 243 245 246 246 246 246 246 248 249 250 251 252 250 253 255 255 255 256 258 260 260 260 261 262 262 263 265 266 266 267 268 270 272 274 277
243 242 240 241 242 241 241 241 243 244 246 247 247 247 247 248 249 249 250 251 253 254 256 257 257 258 258 260 262 263 263 264 264 264 265 266 267 268 269 272 273 275 277
242 241 241 242 242 241 241 242 243 244 245 246 247 248 248 248 249 250 250 251 254 254 256 258 259 260 260 261 262 263 264 265 265 266 266 267 268 269 271 273 273 275 277
243 242 242 243 240 240 241 242 244 245 246 246 247 248 249 249 250 250 250 252 253 254 255 257 259 260 260 261 263 264 265 265 266 267 267 268 268 269 271 272 273 275 276
243 243 242 243 241 242 243 244 245 246 247 247 248 249 250 250 250 251 251 252 252 253 255 255 257 259 261 261 263 265 265 266 267 267 268 268 268 269 270 272 274 274 276
244 243 242 243 242 242 243 245 246 247 247 248 249 249 250 251 251 251 253 254 254 255 256 256 257 259 262 262 263 264 266 266 267 268 268 268 268 269 270 272 273 275 276
246 244 243 244 243 243 243 245 247 248 248 248 249 249 250 251 252 253 254 255 255 256 257 257 258 260 260 262 262 263 265 266 266 267 268 269 269 269 270 272 274 275 276
246 245 243 244 245 245 244 245 247 248 248 248 249 250 251 251 252 253 254 254 255 256 257 258 259 260 260 261 263 263 264 264 265 266 268 269 269 270 271 273 274 275 276
247 247 245 245 246 247 246 247 248 247 246 247 249 250 251 253 253 253 253 255 255 256 257 258 260 260 261 261 263 264 265 265 265 266 268 269 270 271 272 273 274 275 276
248 248 248 247 247 248 247 247 247 248 248 248 249 250 251 252 254 253 254 255 256 256 256 258 259 259 260 262 264 265 265 265 265 266 268 269 271 272 273 274 275 275 276
250 249 250 249 249 249 248 248 247 248 249 249 249 250 251 252 253 253 254 255 255 255 256 257 259 259 261 262 264 265 265 265 265 267 268 269 271 273 273 273 274 275 276
252 251 252 250 250 250 250 249 248 248 249 249 250 251 251 251 251 252 253 255 256 256 257 258 259 259 260 262 263 265 265 265 266 268 268 269 271 273 273 273 274 275 275
255 254 253 253 252 251 251 250 249 249 250 250 251 251 252 252 252 253 255 256 257 257 257 259 260 259 260 262 263 264 265 266 266 267 268 269 271 271 272 273 274 275 275
257 256 254 254 253 253 252 251 251 251 252 252 253 253 253 253 253 254 255 256 258 258 258 259 259 261 262 263 263 263 265 267 267 266 268 270 271 271 272 272 273 274 275
261 259 257 255 254 253 253 253 252 252 252 253 253 253 253 253 253 254 255 255 257 259 258 259 260 261 261 262 264 264 265 266 267 268 269 270 271 271 271 272 272 273 274
265 264 261 258 256 255 256 255 254 253 253 253 253 253 253 254 255 255 255 255 256 258 259 260 261 262 262 262 263 264 265 267 267 268 269 269 270 271 271 271 272 273 274
Height
5835 5835 5837 5838 5838 5839 5840 5841 5841 5842 5842 5843 5844 5845 5846 5846 5847 5847 5848 5848 5848 5849 5849 5850 5850 5850 5850 5851 5851 5851 5851 5851 5851 5851 5851 5851 5851 5851 5851 5850 5850 5850 5850
5832 5833 5834 5835 5836 5837 5838 5838 5839 5840 5840 5841 5842 5843 5844 5844 5845 5845 5846 5846 5846 5847 5847 5848 5848 5848 5849 5849 5850 5850 5850 5850 5850 5850 5850 5850 5850 5850 5849 5849 5849 5849 5849
5828 5830 5831 5832 5833 5834 5835 5836 5837 5837 5838 5839 5839 5840 5841 5842 5843 5843 5844 5844 5844 5845 5845 5846 5846 5847 5847 5848 5848 5848 5848 5848 5849 5848 5848 5849 5848 5848 5848 5848 5848 5848 5847
5824 5826 5827 5828 5829 5831 5832 5833 5834 5835 5835 5836 5837 5838 5839 5839 5840 5841 5841 5842 5842 5843 5843 5844 5844 5845 5845 5846 5846 5846 5846 5846 5847 5847 5847 5847 5847 5847 5846 5846 5846 5846 5846
5819 5821 5823 5824 5826 5827 5828 5829 5830 5831 5832 5833 5834 5835 5836 5837 5837 5838 5839 5839 5840 5840 5841 5841 5842 5843 5843 5844 5844 5844 5844 5844 5845 5845 5845 5845 5845 5844 5844 5844 5844 5844 5843
5814 5816 5818 5820 5821 5823 5824 5826 5827 5828 5829 5830 5831 5832 5833 5834 5834 5835 5835 5836 5837 5837 5838 5839 5839 5840 5841 5841 5842 5842 5842 5842 5842 5842 5842 5842 5842 5842 5842 5842 5841 5841 5841
5808 5810 5812 5814 5816 5818 5820 5821 5823 5824 5825 5826 5827 5828 5829 5830 5831 5831 5832 5833 5834 5834 5835 5836 5837 5837 5838 5838 5839 5839 5839 5839 5839 5840 5840 5840 5839 5839 5839 5839 5839 5838 5838
5802 5804 5806 5808 5811 5813 5815 5817 5818 5820 5821 5822 5823 5824 5825 5826 5827 5828 5829 5829 5830 5831 5832 5832 5833 5834 5834 5835 5835 5836 5836 5836 5836 5836 5837 5837 5836 5836 5836 5836 5835 5835 5835
5795 5797 5799 5802 5804 5807 5809 5811 5813 5815 5817 5818 5819 5820 5821 5821 5822 5823 5825 5825 5826 5827 5828 5829 5829 5830 5831 5831 5831 5832 5832 5833 5833 5833 5833 5833 5833 5833 5833 5832 5832 5831 5831
5789 5790 5792 5795 5798 5801 5803 5806 5808 5810 5811 5813 5814 5815 5816 5817 5818 5819 5820 5821 5822 5823 5824 5824 5825 5826 5826 5827 5827 5828 5828 5828 5829 5829 5829 5829 5829 5829 5829 5828 5828 5827 5827
5781 5783 5785 5788 5791 5794 5797 5800 5802 5804 5805 5807 5809 5810 5812 5813 5814 5815 5816 5816 5817 5818 5819 5820 5820 5821 5822 5822 5823 5823 5824 5824 5824 5824 5824 5824 5824 5824 5824 5824 5823 5823 5822
5773 5776 5778 5780 5783 5787 5789 5792 5795 5797 5799 5801 5803 5805 5806 5807 5809 5810 5810 5811 5812 5813 5814 5815 5815 5816 5817 5817 5818 5818 5819 5819 5819 5819 5819 5819 5819 5819 5819 5819 5818 5818 5817
5766 5768 5770 5773 5776 5779 5782 5785 5788 5790 5792 5794 5796 5798 5800 5801 5802 5804 5805 5806 5807 5808 5809 5809 5810 5810 5811 5812 5812 5812 5813 5813 5813 5813 5814 5813 5813 5813 5813 5813 5812 5812 5811
5758 5760 5763 5765 5768 5771 5774 5778 5780 5783 5785 5787 5789 5791 5792 5794 5795 5797 5799 5800 5801 5802 5803 5803 5803 5804 5805 5805 5806 5806 5807 5807 5807 5807 5807 5807 5807 5807 5807 5807 5806 5806 5805
5750 5752 5755 5757 5761 5764 5767 5769 5772 5774 5776 5779 5781 5783 5785 5787 5788 5790 5791 5793 5794 5795 5796 5796 5797 5797 5798 5799 5799 5799 5800 5800 5800 5801 5800 5800 5800 5800 5800 5800 5800 5799 5798
5742 5745 5748 5750 5753 5756 5759 5761 5764 5766 5768 5770 5772 5774 5776 5778 5780 5782 5783 5784 5786 5787 5788 5789 5789 5790 5791 5791 5792 5792 5793 5793 5793 5793 5793 5793 5793 5793 5793 5793 5792 5791 5790
5734 5737 5739 5742 5745 5747 5750 5753 5755 5757 5759 5762 5764 5766 5768 5769 5771 5773 5775 5776 5777 5779 5780 5780 5781 5782 5783 5784 5784 5785 5785 5785 5785 5786 5786 5786 5786 5785 5785 5785 5784 5783 5782
5725 5728 5731 5734 5736 5738 5741 5744 5746 5748 5751 5753 5755 5757 5758 5760 5762 5764 5765 5767 5768 5769 5771 5771 5772 5773 5774 5775 5776 5776 5776 5777 5777 5777 5777 5778 5777 5777 5777 5776 5776 5775 5774
5717 5719 5722 5724 5727 5729 5732 5734 5737 5739 5741 5743 5745 5747 5749 5751 5752 5754 5756 5757 5759 5760 5761 5762 5763 5764 5765 5765 5766 5767 5767 5767 5768 5768 5769 5769 5769 5768 5768 5767 5767 5766 5765
5708 5711 5713 5715 5718 5720 5722 5725 5727 5729 5731 5733 5735 5737 5739 5741 5742 5744 5745 5747 5748 5750 5751 5752 5753 5754 5755 5756 5757 5757 5757 5758 5758 5758 5759 5759 5759 5759 5758 5758 5757 5756 5755
5699 5702 5703 5705 5708 5710 5712 5714 5716 5718 5720 5723 5725 5727 5729 5730 5732 5734 5735 5736 5737 5739 5741 5742 5743 5744 5745 5745 5746 5747 5748 5748 5748 5748 5749 5749 5749 5748 5748 5747 5747 5746 5745
5690 5692 5693 5695 5697 5699 5701 5703 5705 5707 5709 5712 5714 5716 5718 5720 5721 5723 5724 5726 5727 5728 5730 5731 5732 5733 5734 5735 5736 5736 5737 5739 5738 5738 5738 5738 5738 5737 5737 5736 5735 5735 5734
5681 5682 5684 5685 5687 5688 5690 5692 5694 5696 5698 5700 5703 5704 5706 5708 5710 5712 5714 5715 5716 5718 5719 5720 5721 5723 5724 5725 5725 5726 5727 5728 5728 5729 5728 5728 5727 5727 5726 5725 5724 5723 5722
5672 5672 5673 5674 5676 5677 5679 5680 5682 5684 5687 5689 5691 5693 5695 5697 5699 5701 5703 5704 5705 5707 5708 5709 5711 5711 5713 5714 5714 5715 5716 5716 5716 5717 5718 5717 5716 5715 5714 5713 5712 5711 5710
5663 5662 5662 5662 5664 5666 5667 5669 5670 5673 5675 5677 5679 5681 5683 5685 5687 5689 5691 5692 5694 5695 5696 5698 5699 5700 5701 5702 5703 5704 5704 5704 5704 5705 5706 5705 5705 5704 5703 5702 5701 5699 5698
5654 5653 5652 5652 5653 5655 5656 5657 5659 5661 5663 5665 5667 5669 5671 5673 5675 5677 5679 5681 5682 5684 5685 5686 5687 5688 5689 5690 5691 5691 5692 5692 5692 5692 5692 5693 5692 5692 5691 5690 5689 5688 5686